Lexington Weather

Lexington, Massachusetts, USA

47°F
10/22/2019 2:43am 
  • Lexington Conditions: Mostly cloudy
  • Temperature: 46.9°F / 8.3°CWarmer 1.2°F than last hour.
  • Dew Point: 45.5°FIncreased 1.8°Fsince last hour.
  • Relative Humidity: 95%Increased 2.0% since last hour.
  • Wind: Calm, 10-min avg: Calm, gust: None
  • Barometer: 30.12 in Steady
  • Visibility: 9 miles
  • Rain Today: 0.00 in
  •   

Regional Weather Roundup
for Boston, MA

        
000
ASUS41 KBOX 201010
RWRBOX

REGIONAL WEATHER ROUNDUP
NATIONAL WEATHER SERVICE BOSTON/NORTON MA
600 AM EDT SUN OCT 20 2019

NOTE:  "FAIR" INDICATES FEW OR NO CLOUDS BELOW 12,000 FEET WITH NO 
SIGNIFICANT WEATHER AND/OR OBSTRUCTIONS TO VISIBILITY.

MAZALL-201100-
EASTERN MASSACHUSETTS
  
CITY           SKY/WX    TMP DP  RH WIND       PRES   REMARKS
BOSTON         FAIR      45  35  68 N6        30.07R                  
BEVERLY        FAIR      37  33  85 N3        30.07R                  
LAWRENCE       FAIR      35  33  92 CALM      30.09S FOG              
BEDFORD        FAIR      34  29  82 CALM      30.06S                  
BLUE HILL      NOT AVBL                                               
NORWOOD        FAIR      32  27  81 CALM      30.07R HAZE             
MARSHFIELD     FAIR      36  36 100 CALM      30.07R                  
PLYMOUTH       FAIR      35  33  92 CALM      30.06S                  
TAUNTON        FOG       31  28  89 CALM      30.06S VSB 3/4          
NEW BEDFORD    FAIR      33  31  92 CALM      30.05S                  
$$

MAZALL-201100-
CAPE COD AND THE ISLANDS
  
CITY           SKY/WX    TMP DP  RH WIND       PRES   REMARKS
FALMOUTH       CLEAR     34  34 100 CALM      30.06F                  
HYANNIS        FAIR      34  31  88 CALM      30.05S                  
CHATHAM        NOT AVBL                                               
PROVINCETOWN   FAIR      34  32  92 CALM        N/A  FOG              
NANTUCKET      FAIR      40  38  93 CALM      30.06F                  
MARTHAS VNYRD  FAIR      32  30  92 CALM      30.05F                  
$$
 
MAZALL-201100-
CENTRAL AND WESTERN MASSACHUSETTS
  
CITY           SKY/WX    TMP DP  RH WIND       PRES   REMARKS
WORCESTER      FAIR      43  32  65 N5        30.06R                  
FITCHBURG      FAIR      32  29  88 CALM      30.09R                  
ORANGE         FAIR      30  27  88 CALM      30.08R FOG              
SPRINGFIELD    FAIR      29  28  96 NE6       30.05S FOG     WCI  23  
WESTFIELD      FAIR      31  29  92 CALM      30.06S                  
NORTH ADAMS    FAIR      29  27  92 CALM      30.05S                  
PITTSFIELD     FAIR      32  29  88 CALM      30.02S                  
$$
 
RIZALL-201100-
RHODE ISLAND
  
CITY           SKY/WX    TMP DP  RH WIND       PRES   REMARKS
PROVIDENCE     FAIR      38  36  92 W3        30.07R                  
NEWPORT        FAIR      43  40  89 N3        30.06R                  
BLOCK ISLAND   FAIR      46  43  89 CALM      30.06S                  
SMITHFIELD     FAIR     N/A N/A N/A CALM      30.06R                  
WESTERLY       FAIR      39  37  92 CALM      30.07R                  
$$
 
CTZALL-201100-
CONNECTICUT
  
CITY           SKY/WX    TMP DP  RH WIND       PRES   REMARKS
BRADLEY INTL   FAIR      37  33  85 CALM      30.06S                  
HARTFORD       FAIR      38  35  89 CALM      30.07R                  
BRIDGEPORT     FAIR      44  42  93 N5        30.05R                  
DANBURY        FOG       36  36 100 CALM      30.06R VSB 1/4          
GROTON         FAIR      39  37  92 N6        30.06R                  
NEW HAVEN      FAIR      42  38  85 N6        30.05R                  
CHESTER        FAIR      39  39 100 CALM      30.05R                  
MERIDEN        FAIR      35  33  92 CALM      30.07R                  
WILLIMANTIC    FAIR      32  31  96 CALM      30.08R                  
OXFORD         FAIR      38  37  97 E5        30.04S                  
$$

MEZ002-015-021-024-NHZ003-005-008-011-012-014-VTZ005-008-201100-
NORTHERN NEW ENGLAND
  
CITY           SKY/WX    TMP DP  RH WIND       PRES   REMARKS
PORTLAND ME    FAIR      34  31  88 W5        30.11R WCI  30          
BANGOR ME      FAIR      34  32  92 CALM      30.10R                  
CONCORD NH     FAIR      30  28  92 CALM      30.08F                  
MANCHESTER NH  FAIR      36  32  85 N3        30.07R                  
NASHUA NH      FAIR      31  31 100 NW3       30.09R                  
PORTSMOUTH NH  MOCLDY    36  33  90 CALM      30.07S                  
JAFFREY NH     FAIR      30  27  88 CALM      30.07R                  
KEENE NH       FOG       27  27 100 SW5       30.09R VSB 3/4 WCI  21  
BURLINGTON VT  FAIR      36  33  89 CALM      30.03S                  
MT. WASHINGTON PTCLDY    37  10  32 W16         N/A  WCI  28          
$$

NYZ052-076-201100-
EASTERN NEW YORK
  
CITY           SKY/WX    TMP DP  RH WIND       PRES   REMARKS
ALBANY         FOG       36  34  92 CALM      30.04S VSB 1/2          
NEW YORK CITY  MOCLDY    52  47  83 NE6       30.02S                  
$$
 
ANZALL-201100-
MARINE OBSERVATIONS
  
STATION/POSITION TIME  TEMP    WIND        PRES    VSBY  WAVE
                       AIR SEA DIR/SP/G                  HT/PER
                 (UTC) (F)     (DEG/KT/KT) (MB)    (MI)  (FT/S)
BOSTON BUOY      0950   52 56   10/  6/  8 1017.3R         1/12
BUZZARDS BAY     0900   54      10/  6/  7 1017.9S
NANTUCKET SOUND  0940      56              1017.8
MASS BAY-STELLWA NOT AVBL
ISLE OF SHOALS   0900   48      10/ 10/ 12 1018.0R
S OF BLOCK IS    0930      60                N/A           2/13
$$

......................KEY.........................
  SKY/WX - SKY CONDITION/PRESENT WEATHER
  TMP    - TEMPERATURE IN FAHRENHEIT
  DWPT   - DEWPOINT IN FAHRENHEIT
  RH     - RELATIVE HUMIDITY IN PERCENT
  WIND   - DIRECTION AND SPEED IN MPH
  PRES   - MEAN SEA LEVEL PRESSURE IN INCHES OF HG
  WCI    - WIND CHILL INDEX
  VSB    - VISIBILITY IN MILES
  HX     - HEAT INDEX
  TC     - TEMPERATURE IN CELSIUS
  VRB    - VARIABLE WIND DIRECTION
  N/A    - NOT AVAILABLE
  
      

Other recent Regional Weather Roundups

Tue Oct 22, 2:10am

Tue Oct 22, 2:00am

Tue Oct 22, 1:10am

Tue Oct 22, 1:00am

Tue Oct 22, 12:10am

Tue Oct 22, 12:00am

Mon Oct 21, 11:10pm

Mon Oct 21, 11:00pm

Mon Oct 21, 10:10pm

Mon Oct 21, 10:01pm

Mon Oct 21, 9:10pm

Mon Oct 21, 9:00pm

Mon Oct 21, 8:10pm

Mon Oct 21, 8:00pm

Mon Oct 21, 7:10pm

Mon Oct 21, 7:01pm

Mon Oct 21, 6:10pm

Mon Oct 21, 6:01pm

Mon Oct 21, 5:10pm

Mon Oct 21, 5:01pm

Mon Oct 21, 4:10pm

Mon Oct 21, 4:00pm

Mon Oct 21, 3:10pm

Mon Oct 21, 3:01pm

Mon Oct 21, 2:10pm

Mon Oct 21, 2:00pm

Mon Oct 21, 1:10pm

Mon Oct 21, 1:01pm

Mon Oct 21, 12:10pm

Mon Oct 21, 12:00pm

Mon Oct 21, 11:10am

Mon Oct 21, 11:00am

Mon Oct 21, 10:10am

Mon Oct 21, 10:00am

Mon Oct 21, 9:10am

Mon Oct 21, 9:00am

Mon Oct 21, 7:10am

Mon Oct 21, 7:00am

Mon Oct 21, 6:10am

Mon Oct 21, 6:00am

Mon Oct 21, 5:10am

Mon Oct 21, 5:00am

Mon Oct 21, 4:10am

Mon Oct 21, 4:00am

Mon Oct 21, 3:10am

Mon Oct 21, 3:00am

Mon Oct 21, 2:10am

Mon Oct 21, 2:01am

Mon Oct 21, 1:10am

Mon Oct 21, 1:00am

Mon Oct 21, 12:10am

Mon Oct 21, 12:00am

Sun Oct 20, 11:10pm

Sun Oct 20, 11:00pm

Sun Oct 20, 10:10pm

Sun Oct 20, 10:00pm

Sun Oct 20, 9:10pm

Sun Oct 20, 9:01pm

Sun Oct 20, 8:10pm

Sun Oct 20, 8:00pm

Sun Oct 20, 7:10pm

Sun Oct 20, 7:01pm

Sun Oct 20, 6:10pm

Sun Oct 20, 6:00pm

Sun Oct 20, 5:10pm

Sun Oct 20, 5:00pm

Sun Oct 20, 4:10pm

Sun Oct 20, 4:00pm

Sun Oct 20, 3:10pm

Sun Oct 20, 3:00pm

Sun Oct 20, 2:10pm

Sun Oct 20, 2:01pm

Sun Oct 20, 1:10pm

Sun Oct 20, 1:01pm

Sun Oct 20, 12:10pm

Sun Oct 20, 12:00pm

Sun Oct 20, 11:10am

Sun Oct 20, 11:00am

Sun Oct 20, 10:10am

Sun Oct 20, 10:00am

Sun Oct 20, 9:10am

Sun Oct 20, 9:00am

Sun Oct 20, 8:10am

Sun Oct 20, 8:00am

Sun Oct 20, 7:10am

Sun Oct 20, 7:00am

Sun Oct 20, 6:00am

Sun Oct 20, 5:10am

Sun Oct 20, 5:00am

Sun Oct 20, 4:10am

Sun Oct 20, 4:00am

Sun Oct 20, 3:10am

Sun Oct 20, 3:00am

Sun Oct 20, 2:10am

Sun Oct 20, 2:00am

Sun Oct 20, 1:10am

Sun Oct 20, 1:00am

Sun Oct 20, 12:10am

Sun Oct 20, 12:00am

Sat Oct 19, 11:10pm

Sat Oct 19, 11:00pm

Sat Oct 19, 10:10pm

Sat Oct 19, 10:00pm

Sat Oct 19, 9:10pm

Sat Oct 19, 9:00pm

Sat Oct 19, 8:10pm

Sat Oct 19, 8:00pm

Sat Oct 19, 7:10pm

Sat Oct 19, 7:00pm

Sat Oct 19, 6:10pm

Sat Oct 19, 6:00pm

Sat Oct 19, 5:10pm

Sat Oct 19, 5:00pm

Sat Oct 19, 4:10pm

Sat Oct 19, 4:00pm

Sat Oct 19, 3:10pm

Sat Oct 19, 3:01pm

Sat Oct 19, 2:10pm

Sat Oct 19, 2:00pm

Sat Oct 19, 1:10pm

Sat Oct 19, 1:01pm

Sat Oct 19, 12:10pm

Sat Oct 19, 12:00pm

Sat Oct 19, 11:10am

Sat Oct 19, 11:01am

Sat Oct 19, 10:10am

Sat Oct 19, 10:00am

Sat Oct 19, 9:10am

Sat Oct 19, 9:00am

Sat Oct 19, 8:10am

Sat Oct 19, 8:00am

Sat Oct 19, 7:10am

Sat Oct 19, 7:00am

Sat Oct 19, 6:10am

Sat Oct 19, 6:00am

Sat Oct 19, 5:10am

Sat Oct 19, 5:00am

Sat Oct 19, 4:10am

Sat Oct 19, 4:00am

Sat Oct 19, 3:10am

Sat Oct 19, 3:00am

Meta data:

ID: 47c94ddc-2ad3-44f9-b7bd-841520d3b1df
Link: https://api.weather.gov/products/47c94ddc-2ad3-44f9-b7bd-841520d3b1df